Location: *
(46.3500°N, 10.9000°E)
Time: 22:48:20
(UTC+00:00)

Vanguard 2 - Pass Details

Date: 24 April 2021
Orbit: 552 x 2938 km, 32.9° (Epoch: 12 May)

Event Time Altitude Azimuth Distance (km) Brightness Sun altitude
Rises 13:27:07 0° 261° (W) 6,610 12.9 46.6°
Reaches altitude 10° 13:32:10 10° 256° (WSW) 5,376 12.7 45.9°
Maximum altitude 13:45:38 41° 194° (SSW) 2,676 11.5 44.0°
Drops below altitude 10° 13:54:29 10° 128° (SE) 3,569 10.9 42.7°
Sets 13:57:08 0° 121° (ESE) 4,260 11.1 42.3°
